Hourly Data Report for October 12, 2014

All times are specified in Local Standard Time (LST). Add 1 hour to adjust for Daylight Saving Time where and when it is observed.

GRISE FIORD CLIMATE
NUNAVUT

76°25'22.040" N
82°54'08.020" W
44.50 m
2402351
71971
NGC

Download Data

Hourly Data (October 2014)
Hourly Data Report for October 12, 2014
Temp Definition
°C
Dew Point Temp Definition
°C
Rel Hum Definition
%
Wind Dir Definition
10's deg

Wind Spd Definition
km/h
Visibility Definition
km
Stn Press Definition
kPa
Hmdx Definition


Wind Chill Definition


Weather Definition


TIME
00:00 -1.2 -1.4 99 34 3   100.55   -2 LegendNANA
01:00 -1.1 -1.3 99 33 1   100.56   -1 LegendNANA
02:00 -0.9 -1.1 99 33 4   100.59   -2 LegendNANA
03:00 -1.2 -1.4 99 1 2   100.53   -2 LegendNANA
04:00 -1.5 -1.9 97 12 3   100.52   -3 LegendNANA
05:00 -2.2 -2.5 98 3 7   100.53   -5 LegendNANA
06:00 -1.9 -3.1 92 14 8   100.54   -5 LegendNANA
07:00 -1.5 -2.5 93 13 6   100.63   -4 LegendNANA
08:00 -0.8 -1.5 95 31 9   100.59   -4 LegendNANA
09:00 -1.2 -1.8 96 16 4   100.62   -3 LegendNANA
10:00 -0.3 -1.6 90 35 7   100.64   -3 LegendNANA
11:00 -0.5 -1.6 93 5 2   100.66   -1 LegendNANA
12:00 -0.4 -1.5 92 16 3   100.68   -1 LegendNANA
13:00 -0.9 -1.5 96 25 2   100.74   -2 LegendNANA
14:00 -1.5 -2.0 97 4 7   100.76   -4 LegendNANA
15:00 -1.3 -1.8 97 34 3   100.79   -2 LegendNANA
16:00 -1.3 -1.8 96 33 1   100.83   -2 LegendNANA
17:00 -1.4 -1.7 98 8 2   100.90   -2 LegendNANA
18:00 -0.9 -1.7 94 3 8   100.88   -4 LegendNANA
19:00 2.3 -1.1 78 32 7   100.91     LegendNANA
20:00 -0.2 -1.2 93 26 5   100.93   -2 LegendNANA
21:00 -0.6 -1.3 95 2 3   100.99   -2 LegendNANA
22:00 -0.3 -1.3 93 3 5   101.00   -2 LegendNANA
23:00 -0.4 -1.6 92 30 2   101.02   -1 LegendNANA

Notes on Data Quality.

Legend

  • E = Estimated
  • M = Missing
  • NA = Not Available
  • ‡ = Partner data that is not subject to review by the National Climate Archives
Date modified: